DWI45 KRSW-CYQQ

Flight info

Callsign DWI45
Flight time 6h 8m
Altitude 28000
Route CSHEL8 JAWJA/N0479F300 Q116 LOBBS J41 GOOGY Q116 LUKKY J41 OVR J151 ONL/N0429F320 J151 BIL J136 GEG J52 YVR DCT VIGSO
Aircraft C17/H-SDE1E2FGHIJ5RTUWXY/LB1D1

Departure

Time 2026-05-04 19:07
Airport Southwest Florida International Airport (KRSW)

Arrival

Time 2026-05-05 01:16
Airport Comox Valley International Airport / CFB Comox (CYQQ)
Time Latitude Longitude Altitude Speed Heading
2026-05-04 18:29 26.53394 -81.76556 35 ft 0 kts 323°
2026-05-04 18:55 26.53380 -81.76543 34 ft 3 kts 307°
2026-05-04 18:56 26.53370 -81.76518 33 ft 3 kts 264°
2026-05-04 18:56 26.53377 -81.76496 31 ft 0 kts 233°
2026-05-04 19:02 26.53376 -81.76497 43 ft 1 kts 233°
2026-05-04 19:02 26.53365 -81.76514 32 ft 6 kts 233°
2026-05-04 19:03 26.53311 -81.76540 34 ft 10 kts 171°
2026-05-04 19:03 26.53217 -81.76486 31 ft 19 kts 141°
2026-05-04 19:03 26.53132 -81.76478 32 ft 11 kts 221°
2026-05-04 19:03 26.53069 -81.76567 32 ft 20 kts 232°
2026-05-04 19:04 26.52965 -81.76723 32 ft 30 kts 234°
2026-05-04 19:04 26.52878 -81.76860 36 ft 20 kts 234°
2026-05-04 19:04 26.52806 -81.76969 36 ft 11 kts 234°
2026-05-04 19:04 26.52759 -81.77031 36 ft 7 kts 211°
2026-05-04 19:05 26.52747 -81.77035 36 ft 0 kts 187°
2026-05-04 19:06 26.52737 -81.77035 36 ft 4 kts 180°
2026-05-04 19:06 26.52700 -81.77018 36 ft 7 kts 136°
2026-05-04 19:06 26.52685 -81.76958 36 ft 10 kts 81°
2026-05-04 19:07 26.52721 -81.76889 36 ft 18 kts 53°
2026-05-04 19:07 26.52937 -81.76555 33 ft 91 kts 54°
2026-05-04 19:07 26.53445 -81.75783 36 ft 152 kts 54°
2026-05-04 19:07 26.54101 -81.74791 662 ft 158 kts 55°
2026-05-04 19:08 26.54765 -81.73795 1579 ft 164 kts 54°
2026-05-04 19:08 26.55509 -81.72657 2037 ft 199 kts 55°
2026-05-04 19:08 26.56364 -81.71321 2450 ft 229 kts 55°
2026-05-04 19:08 26.57334 -81.69791 2869 ft 254 kts 55°
2026-05-04 19:09 26.58452 -81.68171 3251 ft 274 kts 45°
2026-05-04 19:09 26.60047 -81.67174 3548 ft 248 kts 16°
2026-05-04 19:09 26.61768 -81.67259 3854 ft 260 kts 346°
2026-05-04 19:09 26.63360 -81.68331 3921 ft 275 kts 317°
2026-05-04 19:10 26.64350 -81.70148 3961 ft 278 kts 291°
2026-05-04 19:10 26.65238 -81.72043 3973 ft 279 kts 315°
2026-05-04 19:10 26.66865 -81.73120 3903 ft 268 kts 346°
2026-05-04 19:10 26.68678 -81.73575 3984 ft 268 kts 351°
2026-05-04 19:11 26.70525 -81.73943 4019 ft 270 kts 352°
2026-05-04 19:11 26.72373 -81.74290 4031 ft 268 kts 354°
2026-05-04 19:11 26.74209 -81.74596 4037 ft 266 kts 355°
2026-05-04 19:11 26.76046 -81.74861 4035 ft 267 kts 355°
2026-05-04 19:12 26.77865 -81.75078 4346 ft 262 kts 356°
2026-05-04 19:12 26.81621 -81.75404 5121 ft 273 kts 358°
2026-05-04 19:12 26.83512 -81.75509 5483 ft 272 kts 359°
2026-05-04 19:13 26.85414 -81.75570 5853 ft 276 kts 360°
2026-05-04 19:13 26.87342 -81.75589 6234 ft 277 kts
2026-05-04 19:13 26.89266 -81.75568 6598 ft 277 kts
2026-05-04 19:13 26.91202 -81.75507 6951 ft 281 kts
2026-05-04 19:14 26.93172 -81.75406 7315 ft 285 kts
2026-05-04 19:14 26.95157 -81.75266 7677 ft 286 kts
2026-05-04 19:14 26.97148 -81.75084 8032 ft 289 kts
2026-05-04 19:14 26.99171 -81.74869 8420 ft 294 kts
2026-05-04 19:15 27.01211 -81.74831 8793 ft 292 kts 353°
2026-05-04 19:15 27.03232 -81.75104 9179 ft 295 kts 349°
2026-05-04 19:15 27.05264 -81.75459 9568 ft 296 kts 345°
2026-05-04 19:15 27.07244 -81.76050 9954 ft 294 kts 338°
2026-05-04 19:16 27.09182 -81.76820 10308 ft 296 kts 337°
2026-05-04 19:16 27.11146 -81.77539 10671 ft 299 kts 340°
2026-05-04 19:16 27.13229 -81.78231 11064 ft 327 kts 340°
2026-05-04 19:16 27.15480 -81.78997 11470 ft 343 kts 339°
2026-05-04 19:17 27.16994 -81.79521 11733 ft 343 kts 339°
2026-05-04 19:17 27.19282 -81.80316 12122 ft 347 kts 339°
2026-05-04 19:17 27.21611 -81.81123 12502 ft 351 kts 339°
2026-05-04 19:17 27.24697 -81.82188 13024 ft 350 kts 340°
2026-05-04 19:18 27.27036 -81.82997 13426 ft 352 kts 340°
2026-05-04 19:18 27.29408 -81.83823 13867 ft 368 kts 340°
2026-05-04 19:18 27.31886 -81.84684 14286 ft 373 kts 340°
2026-05-04 19:18 27.33556 -81.85258 14549 ft 369 kts 339°
2026-05-04 19:19 27.36012 -81.86106 14949 ft 371 kts 339°
2026-05-04 19:19 27.38490 -81.86971 15349 ft 375 kts 339°
2026-05-04 19:19 27.40986 -81.87838 15755 ft 375 kts 339°
2026-05-04 19:19 27.43450 -81.88691 16159 ft 377 kts 339°
2026-05-04 19:20 27.45968 -81.89566 16615 ft 379 kts 338°
2026-05-04 19:20 27.48497 -81.90447 17127 ft 382 kts 338°
2026-05-04 19:20 27.51050 -81.91336 17636 ft 386 kts 338°
2026-05-04 19:20 27.53659 -81.92242 18172 ft 389 kts 338°
2026-05-04 19:21 27.56259 -81.93148 18645 ft 394 kts 338°
2026-05-04 19:21 27.58892 -81.94066 19104 ft 397 kts 338°
2026-05-04 19:21 27.61533 -81.94984 19564 ft 398 kts 337°
2026-05-04 19:21 27.64182 -81.95907 20022 ft 400 kts 337°
2026-05-04 19:22 27.66854 -81.96842 20503 ft 404 kts 337°
2026-05-04 19:22 27.69553 -81.97784 20981 ft 407 kts 337°
2026-05-04 19:22 27.72267 -81.98729 21486 ft 409 kts 337°
2026-05-04 19:22 27.74993 -81.99682 21968 ft 412 kts 337°
2026-05-04 19:23 27.77710 -82.00634 22484 ft 416 kts 337°
2026-05-04 19:23 27.80530 -82.01606 23009 ft 420 kts 338°
2026-05-04 19:23 27.83305 -82.02522 23541 ft 422 kts 338°
2026-05-04 19:23 27.86171 -82.03470 24034 ft 424 kts 338°
2026-05-04 19:24 27.88997 -82.04428 24465 ft 424 kts 337°
2026-05-04 19:24 27.91791 -82.05377 24929 ft 426 kts 337°
2026-05-04 19:24 27.94644 -82.06338 25385 ft 430 kts 337°
2026-05-04 19:24 27.97515 -82.07301 25857 ft 431 kts 337°
2026-05-04 19:25 28.00383 -82.08267 26330 ft 432 kts 337°
2026-05-04 19:25 28.03272 -82.09245 26804 ft 434 kts 336°
2026-05-04 19:25 28.06176 -82.10227 27298 ft 437 kts 336°
2026-05-04 19:25 28.09160 -82.11037 27797 ft 448 kts 346°
2026-05-04 19:26 28.12304 -82.11367 28047 ft 459 kts 348°
2026-05-04 19:26 28.18630 -82.11916 28065 ft 451 kts 347°
2026-05-04 19:27 28.24864 -82.12556 28071 ft 452 kts 348°
2026-05-04 19:27 28.31142 -82.13143 28077 ft 452 kts 348°
2026-05-04 19:28 28.37388 -82.13757 28066 ft 451 kts 347°
2026-05-04 19:28 28.43646 -82.14429 28074 ft 447 kts 342°
2026-05-04 19:28 28.46579 -82.15396 28092 ft 433 kts 329°
2026-05-04 19:29 28.49187 -82.17019 28091 ft 422 kts 318°
2026-05-04 19:29 28.51393 -82.19169 28090 ft 415 kts 307°
2026-05-04 19:29 28.53315 -82.21606 28073 ft 415 kts 306°
2026-05-04 19:30 28.57136 -82.26507 28079 ft 413 kts 307°
2026-05-04 19:30 28.60956 -82.31382 28078 ft 414 kts 306°
2026-05-04 19:31 28.64780 -82.36279 28076 ft 414 kts 307°
2026-05-04 19:31 28.68599 -82.41171 28077 ft 413 kts 307°
2026-05-04 19:32 28.72417 -82.46070 28081 ft 413 kts 307°
2026-05-04 19:32 28.76229 -82.50966 28074 ft 413 kts 307°
2026-05-04 19:33 28.80033 -82.55857 28067 ft 412 kts 307°
2026-05-04 19:33 28.83839 -82.60758 28071 ft 413 kts 307°
2026-05-04 19:34 28.87649 -82.65668 28071 ft 413 kts 307°
2026-05-04 19:34 28.91446 -82.70570 28059 ft 412 kts 307°
2026-05-04 19:35 28.95246 -82.75479 28065 ft 413 kts 307°
2026-05-04 19:35 28.99050 -82.80399 28062 ft 412 kts 307°
2026-05-04 19:36 29.02834 -82.85301 28055 ft 412 kts 307°
2026-05-04 19:36 29.06691 -82.90108 28070 ft 417 kts 314°
2026-05-04 19:37 29.11423 -82.94040 28058 ft 421 kts 319°
2026-05-04 19:37 29.16185 -82.97943 28057 ft 422 kts 319°
2026-05-04 19:38 29.20962 -83.01841 28057 ft 421 kts 319°
2026-05-04 19:38 29.25717 -83.05735 28056 ft 420 kts 319°
2026-05-04 19:39 29.30483 -83.09640 28061 ft 422 kts 319°
2026-05-04 19:39 29.35251 -83.13550 28060 ft 421 kts 319°
2026-05-04 19:40 29.40012 -83.17462 28060 ft 421 kts 319°
2026-05-04 19:40 29.44760 -83.21363 28055 ft 419 kts 319°
2026-05-04 19:41 29.49511 -83.25277 28062 ft 421 kts 319°
2026-05-04 19:41 29.54264 -83.29192 28063 ft 419 kts 319°
2026-05-04 19:42 29.59000 -83.33102 28064 ft 420 kts 319°
2026-05-04 19:42 29.63763 -83.37035 28067 ft 421 kts 319°
2026-05-04 19:43 29.68509 -83.40961 28065 ft 420 kts 319°
2026-05-04 19:43 29.73250 -83.44887 28066 ft 420 kts 319°
2026-05-04 19:44 29.77992 -83.48819 28066 ft 421 kts 319°
2026-05-04 19:44 29.82744 -83.52763 28071 ft 421 kts 319°
2026-05-04 19:45 29.87473 -83.56692 28076 ft 417 kts 319°
2026-05-04 19:45 29.92191 -83.60617 28079 ft 420 kts 319°
2026-05-04 19:46 29.96924 -83.64555 28090 ft 419 kts 319°
2026-05-04 19:46 30.01626 -83.68473 28069 ft 416 kts 318°
2026-05-04 19:47 30.06336 -83.72406 28069 ft 419 kts 319°
2026-05-04 19:47 30.11046 -83.76338 28070 ft 416 kts 318°
2026-05-04 19:48 30.15743 -83.80269 28060 ft 418 kts 319°
2026-05-04 19:48 30.20453 -83.84214 28069 ft 417 kts 318°
2026-05-04 19:49 30.25146 -83.88155 28058 ft 417 kts 318°
2026-05-04 19:49 30.29842 -83.92100 28075 ft 416 kts 318°
2026-05-04 19:50 30.34506 -83.96025 28079 ft 415 kts 318°
2026-05-04 19:50 30.39187 -83.99967 28081 ft 416 kts 318°
2026-05-04 19:51 30.43820 -84.03874 28076 ft 414 kts 318°
2026-05-04 19:51 30.48526 -84.07850 28083 ft 417 kts 318°
2026-05-04 19:52 30.53169 -84.11772 28092 ft 414 kts 318°
2026-05-04 19:52 30.57825 -84.15715 28083 ft 415 kts 318°
2026-05-04 19:53 30.62499 -84.19676 28084 ft 415 kts 318°
2026-05-04 19:53 30.67153 -84.23624 28079 ft 414 kts 318°
2026-05-04 19:54 30.71820 -84.27591 28078 ft 416 kts 318°
2026-05-04 19:54 30.76478 -84.31549 28069 ft 413 kts 318°
2026-05-04 19:55 30.81115 -84.35502 28077 ft 415 kts 318°
2026-05-04 19:55 30.85778 -84.39476 28072 ft 414 kts 318°
2026-05-04 19:56 30.90406 -84.43427 28067 ft 413 kts 318°
2026-05-04 19:56 30.95051 -84.47399 28083 ft 414 kts 318°
2026-05-04 19:57 30.99685 -84.51362 28081 ft 413 kts 318°
2026-05-04 19:57 31.04281 -84.55297 28369 ft 399 kts 318°
2026-05-04 19:57 31.06519 -84.57214 28812 ft 401 kts 317°
2026-05-04 19:58 31.08790 -84.59177 29284 ft 411 kts 317°
2026-05-04 19:58 31.11094 -84.61155 29773 ft 411 kts 317°
2026-05-04 19:58 31.13405 -84.63132 30090 ft 415 kts 317°
2026-05-04 19:59 31.18074 -84.67149 30082 ft 414 kts 317°
2026-05-04 19:59 31.22663 -84.71100 30084 ft 409 kts 317°
2026-05-04 20:00 31.27234 -84.75044 30090 ft 412 kts 317°
2026-05-04 20:00 31.31833 -84.79009 30084 ft 409 kts 317°
2026-05-04 20:01 31.36425 -84.82983 30072 ft 412 kts 317°
2026-05-04 20:01 31.41025 -84.86959 30071 ft 410 kts 317°
2026-05-04 20:02 31.45629 -84.90955 30084 ft 417 kts 317°
2026-05-04 20:02 31.50289 -84.94990 30087 ft 414 kts 317°
2026-05-04 20:03 31.54911 -84.99010 30086 ft 414 kts 317°
2026-05-04 20:03 31.59550 -85.03049 30088 ft 415 kts 317°
2026-05-04 20:04 31.64156 -85.07086 30090 ft 411 kts 317°
2026-05-04 20:04 31.67955 -85.10414 30085 ft 411 kts 317°
2026-05-04 20:05 31.72556 -85.14453 30080 ft 417 kts 318°
2026-05-04 20:05 31.77995 -85.19228 30089 ft 418 kts 318°
2026-05-04 20:06 31.81885 -85.22650 30086 ft 417 kts 318°
2026-05-04 20:06 31.86538 -85.26751 30078 ft 419 kts 318°
2026-05-04 20:07 31.91199 -85.30856 30073 ft 417 kts 318°
2026-05-04 20:07 31.95840 -85.34959 30065 ft 418 kts 318°
2026-05-04 20:08 32.00499 -85.39075 30067 ft 420 kts 318°
2026-05-04 20:08 32.05176 -85.43217 30070 ft 420 kts 318°
2026-05-04 20:09 32.09823 -85.47334 30066 ft 417 kts 318°
2026-05-04 20:09 32.14479 -85.51470 30064 ft 420 kts 318°
2026-05-04 20:10 32.19106 -85.55578 30063 ft 418 kts 318°
2026-05-04 20:10 32.23748 -85.59713 30057 ft 419 kts 318°
2026-05-04 20:11 32.28408 -85.63864 30061 ft 421 kts 319°
2026-05-04 20:11 32.33099 -85.68051 30059 ft 424 kts 319°
2026-05-04 20:12 32.37786 -85.72235 30054 ft 421 kts 319°
2026-05-04 20:12 32.42473 -85.76431 30045 ft 423 kts 319°
2026-05-04 20:13 32.47163 -85.80631 30048 ft 422 kts 319°
2026-05-04 20:13 32.51839 -85.84826 30047 ft 423 kts 319°
2026-05-04 20:14 32.56539 -85.89047 30047 ft 425 kts 319°
2026-05-04 20:14 32.61261 -85.93296 30046 ft 427 kts 319°
2026-05-04 20:15 32.65975 -85.97539 30049 ft 424 kts 319°
2026-05-04 20:15 32.70686 -86.01792 30054 ft 426 kts 319°
2026-05-04 20:16 32.75408 -86.06053 30048 ft 425 kts 319°
2026-05-04 20:16 32.80108 -86.10305 30044 ft 425 kts 319°
2026-05-04 20:17 32.84822 -86.14575 30042 ft 428 kts 319°
2026-05-04 20:17 32.89563 -86.18872 30046 ft 428 kts 319°
2026-05-04 20:18 32.94274 -86.23150 30038 ft 425 kts 319°
2026-05-04 20:18 32.98986 -86.27437 30040 ft 427 kts 319°
2026-05-04 20:19 33.03706 -86.31733 30045 ft 426 kts 319°
2026-05-04 20:19 33.08407 -86.36021 30064 ft 426 kts 319°
2026-05-04 20:20 33.13123 -86.40327 30072 ft 429 kts 319°
2026-05-04 20:20 33.17825 -86.44626 30067 ft 428 kts 319°
2026-05-04 20:21 33.22537 -86.48940 30062 ft 427 kts 319°
2026-05-04 20:21 33.29623 -86.55440 30050 ft 428 kts 319°
2026-05-04 20:22 33.34330 -86.59765 30047 ft 425 kts 319°
2026-05-04 20:22 33.39018 -86.64081 30049 ft 427 kts 319°
2026-05-04 20:23 33.43727 -86.68417 30059 ft 426 kts 319°
2026-05-04 20:23 33.48412 -86.72741 30056 ft 425 kts 319°
2026-05-04 20:24 33.53106 -86.77079 30061 ft 427 kts 319°
2026-05-04 20:24 33.57804 -86.81426 30061 ft 430 kts 319°
2026-05-04 20:25 33.62599 -86.85871 30058 ft 434 kts 319°
2026-05-04 20:25 33.67102 -86.90610 30049 ft 431 kts 305°
2026-05-04 20:26 33.70133 -86.96794 30050 ft 427 kts 297°
2026-05-04 20:26 33.72927 -87.02968 30017 ft 424 kts 297°
2026-05-04 20:27 33.75769 -87.09219 30007 ft 427 kts 297°
2026-05-04 20:27 33.78613 -87.15501 29992 ft 425 kts 297°
2026-05-04 20:28 33.81419 -87.21706 30021 ft 426 kts 297°
2026-05-04 20:28 33.84242 -87.27958 30025 ft 425 kts 297°
2026-05-04 20:29 33.87059 -87.34212 30028 ft 425 kts 297°
2026-05-04 20:29 33.89860 -87.40438 30024 ft 422 kts 297°
2026-05-04 20:30 33.92658 -87.46670 30019 ft 424 kts 297°
2026-05-04 20:30 33.95490 -87.52989 30021 ft 431 kts 297°
2026-05-04 20:31 33.98319 -87.59312 30003 ft 427 kts 297°
2026-05-04 20:31 34.01146 -87.65643 29997 ft 430 kts 297°
2026-05-04 20:32 34.03971 -87.71981 29986 ft 428 kts 297°
2026-05-04 20:32 34.06758 -87.78243 29976 ft 423 kts 297°
2026-05-04 20:33 34.09548 -87.84528 29982 ft 426 kts 297°
2026-05-04 20:33 34.12334 -87.90808 29979 ft 424 kts 297°
2026-05-04 20:34 34.15114 -87.97091 29984 ft 426 kts 297°
2026-05-04 20:34 34.17900 -88.03398 29983 ft 424 kts 297°
2026-05-04 20:35 34.20673 -88.09687 29972 ft 426 kts 297°
2026-05-04 20:35 34.23468 -88.16038 29996 ft 428 kts 297°
2026-05-04 20:36 34.26232 -88.22330 29969 ft 426 kts 297°
2026-05-04 20:36 34.29033 -88.28717 29979 ft 428 kts 297°
2026-05-04 20:37 34.31794 -88.35023 29980 ft 426 kts 296°
2026-05-04 20:37 34.34580 -88.41400 29984 ft 427 kts 296°
2026-05-04 20:38 34.37339 -88.47726 29978 ft 427 kts 297°
2026-05-04 20:38 34.40073 -88.54007 29995 ft 420 kts 297°
2026-05-04 20:39 34.42812 -88.60310 29982 ft 424 kts 296°
2026-05-04 20:39 34.45540 -88.66601 29969 ft 421 kts 296°
2026-05-04 20:40 34.48277 -88.72924 29975 ft 429 kts 296°
2026-05-04 20:40 34.51056 -88.79355 29985 ft 429 kts 296°
2026-05-04 20:41 34.53812 -88.85743 29968 ft 428 kts 297°
2026-05-04 20:41 34.56536 -88.92069 29970 ft 420 kts 296°
2026-05-04 20:42 34.59250 -88.98388 29976 ft 424 kts 296°
2026-05-04 20:42 34.61968 -89.04725 29974 ft 422 kts 296°
2026-05-04 20:43 34.64676 -89.11049 29967 ft 423 kts 296°
2026-05-04 20:43 34.67386 -89.17392 29969 ft 423 kts 296°
2026-05-04 20:44 34.70083 -89.23716 29949 ft 422 kts 296°
2026-05-04 20:44 34.72747 -89.29970 29952 ft 412 kts 297°
2026-05-04 20:45 34.75419 -89.36262 29970 ft 426 kts 296°
2026-05-04 20:45 34.78114 -89.42611 29956 ft 420 kts 296°
2026-05-04 20:46 34.80792 -89.48942 29959 ft 422 kts 296°
2026-05-04 20:46 34.83477 -89.55290 29954 ft 420 kts 296°
2026-05-04 20:47 34.86128 -89.61579 29951 ft 421 kts 296°
2026-05-04 20:47 34.88822 -89.67977 29954 ft 421 kts 296°
2026-05-04 20:48 34.91468 -89.74275 29952 ft 420 kts 296°
2026-05-04 20:48 34.94131 -89.80625 29954 ft 422 kts 296°
2026-05-04 20:49 34.96795 -89.86986 29950 ft 420 kts 296°
2026-05-04 20:49 34.99448 -89.93337 29959 ft 421 kts 296°
2026-05-04 20:50 35.02420 -89.99534 29956 ft 428 kts 309°
2026-05-04 20:50 35.06346 -90.04880 29931 ft 419 kts 310°
2026-05-04 20:51 35.10249 -90.10227 29933 ft 424 kts 309°
2026-05-04 20:51 35.14162 -90.15578 29931 ft 421 kts 310°
2026-05-04 20:52 35.18065 -90.20932 29926 ft 423 kts 310°
2026-05-04 20:52 35.21969 -90.26293 29923 ft 421 kts 310°
2026-05-04 20:53 35.25863 -90.31649 29911 ft 424 kts 309°
2026-05-04 20:53 35.29813 -90.37091 29917 ft 427 kts 309°
2026-05-04 20:54 35.33059 -90.41565 29903 ft 416 kts 309°
2026-05-04 20:54 35.36889 -90.46863 29909 ft 419 kts 309°
2026-05-04 20:55 35.40762 -90.52218 29915 ft 418 kts 309°
2026-05-04 20:55 35.44610 -90.57553 29911 ft 418 kts 309°
2026-05-04 20:56 35.48470 -90.62911 29915 ft 419 kts 309°
2026-05-04 20:56 35.52330 -90.68278 29923 ft 423 kts 309°
2026-05-04 20:57 35.56224 -90.73698 29914 ft 422 kts 309°
2026-05-04 20:57 35.60083 -90.79081 29912 ft 416 kts 309°
2026-05-04 20:58 35.63879 -90.84385 29905 ft 414 kts 309°
2026-05-04 20:58 35.67699 -90.89729 29909 ft 416 kts 309°
2026-05-04 20:59 35.71504 -90.95060 29908 ft 414 kts 309°
2026-05-04 20:59 35.75310 -91.00403 29921 ft 416 kts 309°
2026-05-04 21:00 35.79144 -91.05792 29905 ft 419 kts 309°
2026-05-04 21:00 35.82973 -91.11184 29901 ft 418 kts 309°
2026-05-04 21:01 35.86802 -91.16582 29891 ft 414 kts 309°
2026-05-04 21:01 35.90559 -91.21888 29886 ft 412 kts 309°
2026-05-04 21:02 35.94342 -91.27242 29892 ft 413 kts 309°
2026-05-04 21:02 35.98104 -91.32570 29880 ft 412 kts 309°
2026-05-04 21:03 36.01877 -91.37926 29890 ft 414 kts 309°
2026-05-04 21:03 36.05640 -91.43274 29873 ft 411 kts 309°
2026-05-04 21:04 36.09397 -91.48623 29871 ft 413 kts 309°
2026-05-04 21:04 36.13132 -91.53949 29854 ft 410 kts 309°
2026-05-04 21:05 36.16829 -91.59217 29852 ft 405 kts 309°
2026-05-04 21:05 36.20542 -91.64517 29864 ft 408 kts 309°
2026-05-04 21:06 36.24243 -91.69806 29860 ft 406 kts 309°
2026-05-04 21:06 36.27982 -91.75164 29862 ft 412 kts 309°
2026-05-04 21:07 36.31703 -91.80515 29849 ft 408 kts 309°
2026-05-04 21:07 36.35427 -91.85876 29840 ft 411 kts 309°
2026-05-04 21:08 36.39149 -91.91240 29821 ft 409 kts 309°
2026-05-04 21:08 36.42829 -91.96557 29826 ft 405 kts 309°
2026-05-04 21:09 36.46517 -92.01891 29819 ft 407 kts 309°
2026-05-04 21:09 36.50201 -92.07227 29825 ft 409 kts 309°
2026-05-04 21:10 36.53915 -92.12618 29823 ft 409 kts 309°
2026-05-04 21:10 36.57608 -92.17982 29811 ft 408 kts 309°
2026-05-04 21:11 36.61306 -92.23369 29816 ft 410 kts 309°
2026-05-04 21:11 36.65009 -92.28767 29812 ft 409 kts 309°
2026-05-04 21:12 36.68686 -92.34138 29792 ft 407 kts 308°
2026-05-04 21:12 36.72360 -92.39511 29821 ft 408 kts 308°
2026-05-04 21:13 36.76028 -92.44884 29796 ft 410 kts 309°
2026-05-04 21:13 36.79740 -92.50334 29790 ft 408 kts 309°
2026-05-04 21:14 36.83400 -92.55712 29790 ft 410 kts 309°
2026-05-04 21:14 36.87086 -92.61140 29781 ft 409 kts 309°
2026-05-04 21:15 36.90759 -92.66556 29788 ft 410 kts 308°
2026-05-04 21:15 36.94426 -92.71972 29781 ft 406 kts 308°
2026-05-04 21:16 36.98088 -92.77393 29770 ft 411 kts 308°
2026-05-04 21:16 37.01765 -92.82839 29780 ft 409 kts 309°
2026-05-04 21:17 37.05432 -92.88285 29772 ft 410 kts 309°
2026-05-04 21:17 37.09105 -92.93744 29782 ft 409 kts 308°
2026-05-04 21:18 37.12765 -92.99197 29774 ft 409 kts 308°
2026-05-04 21:18 37.16433 -93.04668 29776 ft 410 kts 308°
2026-05-04 21:19 37.20084 -93.10126 29783 ft 408 kts 308°
2026-05-04 21:19 37.23743 -93.15599 29779 ft 410 kts 308°
2026-05-04 21:20 37.27406 -93.21091 29761 ft 409 kts 308°
2026-05-04 21:20 37.31055 -93.26572 29756 ft 410 kts 308°
2026-05-04 21:21 37.34754 -93.32031 29757 ft 411 kts 313°
2026-05-04 21:21 37.39462 -93.36143 29761 ft 417 kts 327°
2026-05-04 21:22 37.44539 -93.39718 29750 ft 419 kts 326°
2026-05-04 21:22 37.49574 -93.43285 29748 ft 418 kts 327°
2026-05-04 21:23 37.54648 -93.46880 29745 ft 418 kts 326°
2026-05-04 21:23 37.59716 -93.50480 29745 ft 418 kts 326°
2026-05-04 21:24 37.64790 -93.54088 29742 ft 418 kts 326°
2026-05-04 21:24 37.69868 -93.57705 29728 ft 421 kts 326°
2026-05-04 21:25 37.74967 -93.61342 29724 ft 420 kts 326°
2026-05-04 21:25 37.80059 -93.64982 29724 ft 421 kts 326°
2026-05-04 21:26 37.85159 -93.68630 29716 ft 420 kts 326°
2026-05-04 21:26 37.90242 -93.72275 29742 ft 421 kts 326°
2026-05-04 21:27 37.95354 -93.75946 29725 ft 422 kts 326°
2026-05-04 21:27 38.00451 -93.79609 29722 ft 421 kts 326°
2026-05-04 21:28 38.05553 -93.83287 29717 ft 423 kts 326°
2026-05-04 21:28 38.10660 -93.86969 29722 ft 421 kts 326°
2026-05-04 21:29 38.15755 -93.90654 29719 ft 423 kts 326°
2026-05-04 21:29 38.20866 -93.94351 29720 ft 422 kts 326°
2026-05-04 21:30 38.25966 -93.98040 29716 ft 422 kts 326°
2026-05-04 21:30 38.31077 -94.01742 29715 ft 422 kts 325°
2026-05-04 21:31 38.38690 -94.07274 29718 ft 422 kts 325°
2026-05-04 21:32 38.43793 -94.10999 29726 ft 422 kts 325°
2026-05-04 21:32 38.48892 -94.14721 29727 ft 422 kts 325°
2026-05-04 21:33 38.53991 -94.18453 29727 ft 423 kts 325°
2026-05-04 21:33 38.59093 -94.22191 29737 ft 423 kts 324°
2026-05-04 21:34 38.64153 -94.25904 29729 ft 418 kts 324°
2026-05-04 21:34 38.69217 -94.29632 29823 ft 421 kts 324°
2026-05-04 21:35 38.74282 -94.33357 29885 ft 419 kts 324°
2026-05-04 21:35 38.79344 -94.37097 29941 ft 421 kts 324°
2026-05-04 21:36 38.84404 -94.40831 29706 ft 417 kts 324°
2026-05-04 21:36 38.89433 -94.44558 29708 ft 419 kts 324°
2026-05-04 21:37 38.94486 -94.48301 29698 ft 418 kts 324°
2026-05-04 21:37 38.99517 -94.52038 29693 ft 418 kts 324°
2026-05-04 21:38 39.04562 -94.55791 29674 ft 419 kts 324°
2026-05-04 21:38 39.09591 -94.59538 29666 ft 418 kts 323°
2026-05-04 21:39 39.14613 -94.63288 29677 ft 420 kts 323°
2026-05-04 21:39 39.19655 -94.67054 29671 ft 419 kts 323°
2026-05-04 21:40 39.24703 -94.70837 29678 ft 420 kts 323°
2026-05-04 21:40 39.29838 -94.74397 29683 ft 420 kts 331°
2026-05-04 21:41 39.35306 -94.77196 29691 ft 425 kts 332°
2026-05-04 21:41 39.40789 -94.80039 29658 ft 422 kts 331°
2026-05-04 21:42 39.46255 -94.82868 29661 ft 425 kts 331°
2026-05-04 21:42 39.51748 -94.85718 29654 ft 425 kts 332°
2026-05-04 21:43 39.57222 -94.88562 29651 ft 424 kts 332°
2026-05-04 21:43 39.61785 -94.90938 29651 ft 425 kts 332°
2026-05-04 21:44 39.67262 -94.93793 29654 ft 425 kts 332°
2026-05-04 21:44 39.72756 -94.96661 29657 ft 426 kts 331°
2026-05-04 21:45 39.78251 -94.99539 29658 ft 426 kts 331°
2026-05-04 21:45 39.83737 -95.02413 29655 ft 424 kts 331°
2026-05-04 21:46 39.89225 -95.05296 29654 ft 426 kts 331°
2026-05-04 21:46 39.94730 -95.08191 29648 ft 428 kts 331°
2026-05-04 21:47 40.00268 -95.11110 29652 ft 429 kts 331°
2026-05-04 21:47 40.05787 -95.14020 29645 ft 427 kts 331°
2026-05-04 21:48 40.11312 -95.16946 29653 ft 429 kts 331°
2026-05-04 21:48 40.16849 -95.19876 29649 ft 431 kts 332°
2026-05-04 21:49 40.22387 -95.22815 29652 ft 432 kts 332°
2026-05-04 21:49 40.27980 -95.25788 29650 ft 432 kts 331°
2026-05-04 21:50 40.33552 -95.28755 29648 ft 432 kts 332°
2026-05-04 21:50 40.39078 -95.31702 29648 ft 432 kts 332°
2026-05-04 21:51 40.44646 -95.34679 29654 ft 432 kts 331°
2026-05-04 21:51 40.50199 -95.37650 29651 ft 430 kts 331°
2026-05-04 21:52 40.55754 -95.40632 29649 ft 432 kts 331°
2026-05-04 21:52 40.61311 -95.43615 29648 ft 431 kts 331°
2026-05-04 21:53 40.66858 -95.46603 29650 ft 431 kts 331°
2026-05-04 21:53 40.72423 -95.49603 29653 ft 432 kts 331°
2026-05-04 21:54 40.77967 -95.52598 29665 ft 430 kts 331°
2026-05-04 21:54 40.83526 -95.55608 29662 ft 432 kts 331°
2026-05-04 21:55 40.89080 -95.58617 29666 ft 430 kts 331°
2026-05-04 21:55 40.94623 -95.61630 29659 ft 432 kts 331°
2026-05-04 21:56 41.00179 -95.64652 29699 ft 432 kts 331°
2026-05-04 21:56 41.05688 -95.67654 29683 ft 430 kts 331°
2026-05-04 21:57 41.11234 -95.70687 29680 ft 433 kts 331°
2026-05-04 21:57 41.16359 -95.74548 29691 ft 416 kts 313°
2026-05-04 21:58 41.19884 -95.80494 29704 ft 410 kts 298°
2026-05-04 21:58 41.22865 -95.86973 29705 ft 411 kts 298°
2026-05-04 21:59 41.25852 -95.93441 29698 ft 410 kts 298°
2026-05-04 21:59 41.28832 -95.99917 29701 ft 412 kts 298°
2026-05-04 22:00 41.31814 -96.06405 29745 ft 410 kts 298°
2026-05-04 22:00 41.34779 -96.12879 29734 ft 410 kts 298°
2026-05-04 22:01 41.37747 -96.19365 29737 ft 410 kts 298°
2026-05-04 22:01 41.40718 -96.25877 29737 ft 413 kts 298°
2026-05-04 22:02 41.43702 -96.32426 29753 ft 413 kts 298°
2026-05-04 22:02 41.46667 -96.38955 29758 ft 412 kts 298°
2026-05-04 22:03 41.49643 -96.45515 29721 ft 413 kts 298°
2026-05-04 22:03 41.52604 -96.52060 29714 ft 412 kts 298°
2026-05-04 22:04 41.55564 -96.58617 29728 ft 413 kts 298°
2026-05-04 22:04 41.58503 -96.65139 29754 ft 412 kts 298°
2026-05-04 22:05 41.61472 -96.71747 29750 ft 416 kts 298°
2026-05-04 22:05 41.64439 -96.78359 29747 ft 414 kts 298°
2026-05-04 22:06 41.67400 -96.84978 29748 ft 416 kts 298°
2026-05-04 22:06 41.70354 -96.91589 29748 ft 412 kts 298°
2026-05-04 22:07 41.73297 -96.98198 29752 ft 415 kts 298°
2026-05-04 22:07 41.76245 -97.04825 29754 ft 413 kts 298°
2026-05-04 22:08 41.79185 -97.11456 29769 ft 416 kts 298°
2026-05-04 22:08 41.82139 -97.18126 29786 ft 415 kts 298°
2026-05-04 22:09 41.85075 -97.24776 29789 ft 415 kts 298°
2026-05-04 22:09 41.88017 -97.31451 29796 ft 415 kts 298°
2026-05-04 22:10 41.90947 -97.38115 29798 ft 414 kts 298°
2026-05-04 22:10 41.93879 -97.44800 29802 ft 416 kts 298°
2026-05-04 22:11 41.96805 -97.51482 29772 ft 414 kts 297°
2026-05-04 22:11 41.99711 -97.58138 29780 ft 414 kts 297°
2026-05-04 22:12 42.02627 -97.64828 29802 ft 416 kts 297°
2026-05-04 22:12 42.05540 -97.71528 29805 ft 414 kts 297°
2026-05-04 22:13 42.08442 -97.78221 29816 ft 415 kts 297°
2026-05-04 22:13 42.11353 -97.84942 29826 ft 414 kts 297°
2026-05-04 22:14 42.14246 -97.91642 29831 ft 414 kts 297°
2026-05-04 22:14 42.17129 -97.98332 29839 ft 411 kts 297°
2026-05-04 22:15 42.20014 -98.05049 29849 ft 415 kts 297°
2026-05-04 22:15 42.22877 -98.11717 29852 ft 412 kts 297°
2026-05-04 22:16 42.25749 -98.18433 29854 ft 414 kts 297°
2026-05-04 22:16 42.28625 -98.25167 29863 ft 413 kts 297°
2026-05-04 22:17 42.31489 -98.31888 29893 ft 413 kts 297°
2026-05-04 22:17 42.34343 -98.38607 29867 ft 410 kts 296°
2026-05-04 22:18 42.37185 -98.45304 29860 ft 412 kts 296°
2026-05-04 22:18 42.40031 -98.52034 29857 ft 411 kts 296°
2026-05-04 22:19 42.42863 -98.58742 29852 ft 411 kts 296°
2026-05-04 22:19 42.45701 -98.65480 29857 ft 412 kts 296°
2026-05-04 22:20 42.48387 -98.72295 29840 ft 409 kts 294°
2026-05-04 22:20 42.50994 -98.79183 29857 ft 412 kts 294°
2026-05-04 22:21 42.53568 -98.86089 29855 ft 409 kts 294°
2026-05-04 22:21 42.56145 -98.92988 29867 ft 411 kts 294°
2026-05-04 22:22 42.58718 -98.99902 29873 ft 410 kts 294°
2026-05-04 22:22 42.61282 -99.06807 29874 ft 410 kts 294°
2026-05-04 22:23 42.63834 -99.13698 29887 ft 413 kts 294°
2026-05-04 22:23 42.66406 -99.20654 29880 ft 408 kts 294°
2026-05-04 22:24 42.68930 -99.27506 29882 ft 407 kts 294°
2026-05-04 22:24 42.71471 -99.34415 29884 ft 408 kts 294°
2026-05-04 22:25 42.73996 -99.41298 29885 ft 407 kts 294°
2026-05-04 22:25 42.76524 -99.48208 29902 ft 408 kts 294°
2026-05-04 22:26 42.79051 -99.55130 29898 ft 409 kts 294°
2026-05-04 22:26 42.81577 -99.62066 29892 ft 408 kts 294°
2026-05-04 22:27 42.84087 -99.68977 29884 ft 405 kts 293°
2026-05-04 22:27 42.86579 -99.75860 29884 ft 407 kts 293°
2026-05-04 22:28 42.89082 -99.82778 29886 ft 406 kts 293°
2026-05-04 22:28 42.91570 -99.89685 29880 ft 407 kts 293°
2026-05-04 22:29 42.94051 -99.96580 29883 ft 406 kts 293°
2026-05-04 22:29 42.96533 -100.03501 29882 ft 406 kts 293°
2026-05-04 22:30 42.99018 -100.10444 29905 ft 407 kts 293°
2026-05-04 22:30 43.01481 -100.17342 29888 ft 403 kts 293°
2026-05-04 22:31 43.03943 -100.24262 29889 ft 405 kts 293°
2026-05-04 22:31 43.06404 -100.31185 29891 ft 403 kts 293°
2026-05-04 22:32 43.08852 -100.38097 29893 ft 405 kts 293°
2026-05-04 22:32 43.11303 -100.45032 29890 ft 404 kts 293°
2026-05-04 22:33 43.13744 -100.51957 29891 ft 404 kts 293°
2026-05-04 22:33 43.16180 -100.58880 29873 ft 400 kts 293°
2026-05-04 22:34 43.18603 -100.65796 29881 ft 405 kts 293°
2026-05-04 22:34 43.20622 -100.71560 29877 ft 402 kts 293°
2026-05-04 22:35 43.23038 -100.78483 29875 ft 404 kts 293°
2026-05-04 22:35 43.25460 -100.85433 29876 ft 403 kts 293°
2026-05-04 22:36 43.27868 -100.92366 29876 ft 403 kts 293°
2026-05-04 22:36 43.30277 -100.99320 29913 ft 404 kts 293°
2026-05-04 22:37 43.32670 -101.06238 29876 ft 399 kts 292°
2026-05-04 22:37 43.35053 -101.13159 29885 ft 402 kts 293°
2026-05-04 22:38 43.37439 -101.20092 29889 ft 400 kts 292°
2026-05-04 22:38 43.39799 -101.26974 29898 ft 401 kts 292°
2026-05-04 22:39 43.42177 -101.33922 29907 ft 401 kts 292°
2026-05-04 22:39 43.44547 -101.40870 29898 ft 401 kts 292°
2026-05-04 22:40 43.46915 -101.47825 29898 ft 399 kts 292°
2026-05-04 22:40 43.49260 -101.54732 29893 ft 399 kts 292°
2026-05-04 22:41 43.51611 -101.61673 29900 ft 400 kts 292°
2026-05-04 22:41 43.53950 -101.68600 29881 ft 399 kts 292°
2026-05-04 22:42 43.56298 -101.75570 29912 ft 402 kts 292°
2026-05-04 22:42 43.58642 -101.82539 29905 ft 399 kts 292°
2026-05-04 22:43 43.60977 -101.89513 29931 ft 401 kts 292°
2026-05-04 22:43 43.63286 -101.96409 29902 ft 394 kts 292°
2026-05-04 22:44 43.65589 -102.03329 29903 ft 398 kts 292°
2026-05-04 22:44 43.67900 -102.10266 29912 ft 399 kts 292°
2026-05-04 22:45 43.70211 -102.17236 29909 ft 398 kts 292°
2026-05-04 22:45 43.73662 -102.27672 29913 ft 399 kts 292°
2026-05-04 22:46 43.75960 -102.34646 29926 ft 398 kts 292°
2026-05-04 22:46 43.78224 -102.41529 29893 ft 392 kts 292°
2026-05-04 22:47 43.80495 -102.48465 29924 ft 397 kts 292°
2026-05-04 22:47 43.82764 -102.55393 29917 ft 394 kts 292°
2026-05-04 22:48 43.85011 -102.62290 29925 ft 396 kts 292°
2026-05-04 22:48 43.87272 -102.69232 29926 ft 394 kts 292°
2026-05-04 22:49 43.89523 -102.76173 29928 ft 396 kts 292°
2026-05-04 22:49 43.91778 -102.83140 29930 ft 396 kts 292°
2026-05-04 22:50 43.94031 -102.90121 29925 ft 396 kts 292°
2026-05-04 22:50 43.96277 -102.97099 29926 ft 396 kts 292°
2026-05-04 22:51 43.98616 -103.04024 29926 ft 396 kts 294°
2026-05-04 22:51 44.01090 -103.10869 29929 ft 397 kts 294°
2026-05-04 22:52 44.03564 -103.17741 29910 ft 399 kts 294°
2026-05-04 22:52 44.06051 -103.24656 29898 ft 399 kts 294°
2026-05-04 22:53 44.08529 -103.31569 29899 ft 399 kts 294°
2026-05-04 22:53 44.11000 -103.38478 29894 ft 398 kts 294°
2026-05-04 22:54 44.13465 -103.45391 29888 ft 399 kts 294°
2026-05-04 22:54 44.15915 -103.52278 29898 ft 402 kts 294°
2026-05-04 22:55 44.18401 -103.59273 29916 ft 402 kts 294°
2026-05-04 22:55 44.20862 -103.66231 29918 ft 400 kts 294°
2026-05-04 22:56 44.23325 -103.73202 29914 ft 402 kts 294°
2026-05-04 22:56 44.25784 -103.80186 29937 ft 400 kts 294°
2026-05-04 22:57 44.28238 -103.87171 29933 ft 402 kts 294°
2026-05-04 22:57 44.30689 -103.94165 29917 ft 401 kts 294°
2026-05-04 22:58 44.33157 -104.01227 29967 ft 404 kts 294°
2026-05-04 22:58 44.35598 -104.08225 29942 ft 400 kts 294°
2026-05-04 22:59 44.38041 -104.15256 29949 ft 402 kts 294°
2026-05-04 22:59 44.40480 -104.22285 29955 ft 402 kts 294°
2026-05-04 23:00 44.42913 -104.29321 29946 ft 399 kts 294°
2026-05-04 23:00 44.45334 -104.36339 29941 ft 402 kts 294°
2026-05-04 23:01 44.47766 -104.43407 29948 ft 404 kts 295°
2026-05-04 23:01 44.50192 -104.50470 29949 ft 400 kts 294°
2026-05-04 23:02 44.52603 -104.57522 29956 ft 403 kts 294°
2026-05-04 23:02 44.55018 -104.64589 29952 ft 401 kts 294°
2026-05-04 23:03 44.57426 -104.71665 29958 ft 403 kts 294°
2026-05-04 23:03 44.59833 -104.78748 29961 ft 402 kts 294°
2026-05-04 23:04 44.62230 -104.85832 29958 ft 403 kts 294°
2026-05-04 23:04 44.64629 -104.92930 29961 ft 402 kts 294°
2026-05-04 23:05 44.67017 -105.00019 29961 ft 402 kts 294°
2026-05-04 23:05 44.69393 -105.07089 29961 ft 402 kts 294°
2026-05-04 23:06 44.71772 -105.14190 29956 ft 401 kts 294°
2026-05-04 23:06 44.74150 -105.21303 29959 ft 403 kts 294°
2026-05-04 23:07 44.76525 -105.28428 29954 ft 400 kts 294°
2026-05-04 23:07 44.78881 -105.35518 29940 ft 401 kts 294°
2026-05-04 23:08 44.81251 -105.42666 29958 ft 403 kts 294°
2026-05-04 23:08 44.83610 -105.49797 29956 ft 402 kts 294°
2026-05-04 23:09 44.85965 -105.56943 29958 ft 402 kts 294°
2026-05-04 23:09 44.88313 -105.64081 29956 ft 401 kts 294°
2026-05-04 23:10 44.90649 -105.71203 29955 ft 397 kts 294°
2026-05-04 23:10 44.92963 -105.78279 29956 ft 399 kts 294°
2026-05-04 23:11 44.95282 -105.85388 29957 ft 398 kts 294°
2026-05-04 23:11 44.97605 -105.92526 29961 ft 401 kts 294°
2026-05-04 23:12 44.99917 -105.99654 29961 ft 398 kts 294°
2026-05-04 23:12 45.02230 -106.06803 29963 ft 400 kts 294°
2026-05-04 23:13 45.04526 -106.13919 29966 ft 396 kts 294°
2026-05-04 23:13 45.06818 -106.21041 29969 ft 399 kts 294°
2026-05-04 23:14 45.09092 -106.28123 29967 ft 397 kts 294°
2026-05-04 23:14 45.11372 -106.35256 29971 ft 400 kts 294°
2026-05-04 23:15 45.13672 -106.42453 29973 ft 399 kts 294°
2026-05-04 23:15 45.15952 -106.49625 29971 ft 400 kts 294°
2026-05-04 23:16 45.18236 -106.56818 29979 ft 398 kts 294°
2026-05-04 23:16 45.20504 -106.63981 29977 ft 400 kts 294°
2026-05-04 23:17 45.22776 -106.71182 29980 ft 399 kts 294°
2026-05-04 23:17 45.25035 -106.78357 29983 ft 399 kts 294°
2026-05-04 23:18 45.27304 -106.85584 29980 ft 405 kts 294°
2026-05-04 23:18 45.29589 -106.92889 29987 ft 402 kts 294°
2026-05-04 23:19 45.31856 -107.00151 29982 ft 402 kts 294°
2026-05-04 23:19 45.34117 -107.07416 29986 ft 402 kts 294°
2026-05-04 23:20 45.36355 -107.14630 29988 ft 401 kts 294°
2026-05-04 23:20 45.38604 -107.21893 29989 ft 402 kts 294°
2026-05-04 23:21 45.40851 -107.29180 29987 ft 402 kts 294°
2026-05-04 23:21 45.43101 -107.36489 29992 ft 407 kts 294°
2026-05-04 23:22 45.45355 -107.43835 29993 ft 403 kts 294°
2026-05-04 23:22 45.47598 -107.51169 29989 ft 405 kts 294°
2026-05-04 23:23 45.49841 -107.58524 29992 ft 403 kts 294°
2026-05-04 23:23 45.52078 -107.65871 29993 ft 405 kts 294°
2026-05-04 23:24 45.54310 -107.73237 30000 ft 404 kts 294°
2026-05-04 23:24 45.56534 -107.80588 30009 ft 405 kts 294°
2026-05-04 23:25 45.58764 -107.87985 29992 ft 407 kts 294°
2026-05-04 23:25 45.60616 -107.94146 29994 ft 405 kts 294°
2026-05-04 23:26 45.62837 -108.01550 29996 ft 407 kts 294°
2026-05-04 23:26 45.65056 -108.08971 29995 ft 405 kts 294°
2026-05-04 23:27 45.67264 -108.16380 29998 ft 406 kts 294°
2026-05-04 23:27 45.69476 -108.23820 30002 ft 406 kts 294°
2026-05-04 23:28 45.71673 -108.31234 30011 ft 403 kts 294°
2026-05-04 23:28 45.73867 -108.38655 30015 ft 410 kts 294°
2026-05-04 23:29 45.76075 -108.46156 30015 ft 406 kts 294°
2026-05-04 23:29 45.78268 -108.53617 30011 ft 408 kts 294°
2026-05-04 23:30 45.80462 -108.61113 30012 ft 406 kts 294°
2026-05-04 23:30 45.82433 -108.68654 30012 ft 408 kts 292°
2026-05-04 23:31 45.84419 -108.76276 29996 ft 405 kts 292°
2026-05-04 23:31 45.86345 -108.83852 29995 ft 406 kts 292°
2026-05-04 23:32 45.88315 -108.91544 30004 ft 411 kts 292°
2026-05-04 23:32 45.90260 -108.99209 29999 ft 409 kts 292°
2026-05-04 23:33 45.92212 -109.06901 30005 ft 410 kts 292°
2026-05-04 23:33 45.94150 -109.14578 30000 ft 409 kts 292°
2026-05-04 23:34 45.96089 -109.22276 30001 ft 410 kts 292°
2026-05-04 23:34 45.98011 -109.29937 29993 ft 407 kts 292°
2026-05-04 23:35 45.99936 -109.37630 29991 ft 412 kts 292°
2026-05-04 23:35 46.01875 -109.45418 29992 ft 412 kts 292°
2026-05-04 23:36 46.03803 -109.53173 29986 ft 413 kts 292°
2026-05-04 23:36 46.05718 -109.60911 29989 ft 412 kts 292°
2026-05-04 23:37 46.07645 -109.68723 29986 ft 412 kts 292°
2026-05-04 23:37 46.09553 -109.76485 30011 ft 408 kts 292°
2026-05-04 23:38 46.11447 -109.84213 30004 ft 411 kts 292°
2026-05-04 23:38 46.13329 -109.91926 30010 ft 409 kts 292°
2026-05-04 23:39 46.15213 -109.99668 30018 ft 410 kts 292°
2026-05-04 23:39 46.17098 -110.07441 30019 ft 410 kts 292°
2026-05-04 23:40 46.18973 -110.15201 30018 ft 409 kts 292°
2026-05-04 23:40 46.20842 -110.22969 30020 ft 409 kts 292°
2026-05-04 23:41 46.22702 -110.30710 30020 ft 409 kts 292°
2026-05-04 23:41 46.24560 -110.38489 30017 ft 409 kts 292°
2026-05-04 23:42 46.26426 -110.46312 30025 ft 412 kts 292°
2026-05-04 23:42 46.28277 -110.54115 30037 ft 411 kts 292°
2026-05-04 23:43 46.30130 -110.61944 30034 ft 412 kts 292°
2026-05-04 23:43 46.31974 -110.69765 30050 ft 410 kts 292°
2026-05-04 23:44 46.33806 -110.77569 30046 ft 408 kts 292°
2026-05-04 23:44 46.35631 -110.85363 30048 ft 410 kts 292°
2026-05-04 23:45 46.37458 -110.93195 30047 ft 412 kts 292°
2026-05-04 23:45 46.39280 -111.01040 30040 ft 412 kts 292°
2026-05-04 23:46 46.41101 -111.08902 30038 ft 413 kts 292°
2026-05-04 23:46 46.42925 -111.16808 30045 ft 413 kts 292°
2026-05-04 23:47 46.44735 -111.24686 30045 ft 410 kts 292°
2026-05-04 23:47 46.46532 -111.32529 30043 ft 410 kts 292°
2026-05-04 23:48 46.48326 -111.40395 30050 ft 411 kts 292°
2026-05-04 23:48 46.50125 -111.48299 30052 ft 415 kts 291°
2026-05-04 23:49 46.51920 -111.56235 30050 ft 412 kts 291°
2026-05-04 23:49 46.53709 -111.64149 30053 ft 414 kts 291°
2026-05-04 23:50 46.55493 -111.72094 30065 ft 413 kts 291°
2026-05-04 23:50 46.57261 -111.79985 30047 ft 410 kts 291°
2026-05-04 23:51 46.59029 -111.87904 30055 ft 412 kts 291°
2026-05-04 23:51 46.60799 -111.95805 30028 ft 410 kts 293°
2026-05-04 23:52 46.62770 -112.03666 30053 ft 415 kts 292°
2026-05-04 23:52 46.64711 -112.11526 30045 ft 412 kts 293°
2026-05-04 23:53 46.66670 -112.19392 30053 ft 414 kts 293°
2026-05-04 23:53 46.68610 -112.27265 30046 ft 413 kts 293°
2026-05-04 23:54 46.70555 -112.35151 30039 ft 414 kts 292°
2026-05-04 23:54 46.72485 -112.43026 30032 ft 412 kts 292°
2026-05-04 23:55 46.74416 -112.50917 30011 ft 415 kts 292°
2026-05-04 23:56 46.77298 -112.62764 30023 ft 414 kts 292°
2026-05-04 23:56 46.79221 -112.70690 30028 ft 415 kts 292°
2026-05-04 23:57 46.81137 -112.78633 30012 ft 414 kts 292°
2026-05-04 23:57 46.83047 -112.86570 30015 ft 415 kts 292°
2026-05-04 23:58 46.84954 -112.94525 30004 ft 415 kts 292°
2026-05-04 23:58 46.86852 -113.02469 30003 ft 414 kts 292°
2026-05-04 23:59 46.88761 -113.10478 30006 ft 422 kts 291°
2026-05-04 23:59 46.90671 -113.18553 29983 ft 417 kts 291°
2026-05-05 00:00 46.92587 -113.26643 29994 ft 424 kts 291°
2026-05-05 00:00 46.94494 -113.34761 29997 ft 419 kts 291°
2026-05-05 00:01 46.96395 -113.42854 29981 ft 422 kts 291°
2026-05-05 00:01 46.98277 -113.50921 29975 ft 420 kts 291°
2026-05-05 00:02 47.00168 -113.59030 29978 ft 422 kts 291°
2026-05-05 00:02 47.02076 -113.67260 29963 ft 431 kts 291°
2026-05-05 00:03 47.03975 -113.75486 29957 ft 422 kts 291°
2026-05-05 00:03 47.05867 -113.83698 29948 ft 426 kts 291°
2026-05-05 00:04 47.07750 -113.91909 29945 ft 424 kts 291°
2026-05-05 00:04 47.09629 -114.00150 29949 ft 427 kts 291°
2026-05-05 00:05 47.11507 -114.08391 29923 ft 424 kts 291°
2026-05-05 00:05 47.13373 -114.16630 29922 ft 426 kts 291°
2026-05-05 00:06 47.15233 -114.24874 29917 ft 425 kts 291°
2026-05-05 00:06 47.17088 -114.33113 29892 ft 425 kts 291°
2026-05-05 00:07 47.18941 -114.41387 29895 ft 427 kts 291°
2026-05-05 00:07 47.20787 -114.49658 29893 ft 426 kts 291°
2026-05-05 00:08 47.22629 -114.57941 29882 ft 425 kts 291°
2026-05-05 00:08 47.24453 -114.66188 29881 ft 424 kts 291°
2026-05-05 00:09 47.26265 -114.74404 29841 ft 423 kts 291°
2026-05-05 00:09 47.28079 -114.82650 29867 ft 426 kts 291°
2026-05-05 00:10 47.29894 -114.90967 29866 ft 425 kts 291°
2026-05-05 00:10 47.31698 -114.99232 29850 ft 425 kts 291°
2026-05-05 00:11 47.33506 -115.07559 29847 ft 422 kts 291°
2026-05-05 00:11 47.35288 -115.15814 29870 ft 426 kts 291°
2026-05-05 00:12 47.37092 -115.24174 29840 ft 429 kts 291°
2026-05-05 00:12 47.38886 -115.32558 29828 ft 428 kts 291°
2026-05-05 00:13 47.40676 -115.40929 29827 ft 428 kts 291°
2026-05-05 00:13 47.42460 -115.49321 29799 ft 429 kts 291°
2026-05-05 00:14 47.44236 -115.57707 29800 ft 427 kts 291°
2026-05-05 00:14 47.45790 -115.66197 29801 ft 434 kts 282°
2026-05-05 00:15 47.46349 -115.75065 29786 ft 436 kts 280°
2026-05-05 00:15 47.46901 -115.83995 29796 ft 436 kts 281°
2026-05-05 00:16 47.47453 -115.92949 29782 ft 440 kts 281°
2026-05-05 00:16 47.47988 -116.01929 29789 ft 438 kts 281°
2026-05-05 00:17 47.48531 -116.10905 29807 ft 440 kts 280°
2026-05-05 00:17 47.49051 -116.19891 29807 ft 436 kts 281°
2026-05-05 00:18 47.49578 -116.28852 29805 ft 438 kts 281°
2026-05-05 00:18 47.50000 -116.36298 29810 ft 439 kts 281°
2026-05-05 00:19 47.50516 -116.45365 29837 ft 441 kts 281°
2026-05-05 00:19 47.51019 -116.54396 29831 ft 443 kts 281°
2026-05-05 00:20 47.51518 -116.63487 29854 ft 442 kts 281°
2026-05-05 00:20 47.52010 -116.72545 29862 ft 442 kts 281°
2026-05-05 00:21 47.52494 -116.81638 29871 ft 444 kts 281°
2026-05-05 00:21 47.52974 -116.90737 29873 ft 447 kts 281°
2026-05-05 00:22 47.53445 -116.99920 29866 ft 445 kts 281°
2026-05-05 00:22 47.53914 -117.09051 29851 ft 446 kts 281°
2026-05-05 00:23 47.54372 -117.18234 29867 ft 447 kts 281°
2026-05-05 00:23 47.54824 -117.27405 29841 ft 446 kts 281°
2026-05-05 00:24 47.55267 -117.36544 29857 ft 447 kts 281°
2026-05-05 00:24 47.55712 -117.45782 29864 ft 452 kts 281°
2026-05-05 00:25 47.56144 -117.55090 29858 ft 451 kts 281°
2026-05-05 00:25 47.57019 -117.64138 29864 ft 438 kts 295°
2026-05-05 00:26 47.59441 -117.72315 29866 ft 434 kts 300°
2026-05-05 00:26 47.61931 -117.80472 29866 ft 434 kts 300°
2026-05-05 00:27 47.64403 -117.88615 29855 ft 434 kts 300°
2026-05-05 00:27 47.66896 -117.96825 29838 ft 441 kts 300°
2026-05-05 00:28 47.69389 -118.05113 29824 ft 437 kts 300°
2026-05-05 00:28 47.71883 -118.13375 29808 ft 440 kts 300°
2026-05-05 00:29 47.74363 -118.21664 29806 ft 438 kts 300°
2026-05-05 00:29 47.76857 -118.29978 29793 ft 446 kts 300°
2026-05-05 00:30 47.79349 -118.38380 29792 ft 443 kts 300°
2026-05-05 00:30 47.81844 -118.46762 29783 ft 444 kts 300°
2026-05-05 00:31 47.84330 -118.55182 29785 ft 442 kts 300°
2026-05-05 00:31 47.86807 -118.63571 29773 ft 444 kts 300°
2026-05-05 00:32 47.89281 -118.72009 29787 ft 442 kts 300°
2026-05-05 00:32 47.91744 -118.80389 29780 ft 442 kts 300°
2026-05-05 00:33 47.94197 -118.88823 29787 ft 443 kts 300°
2026-05-05 00:33 47.96638 -118.97212 29784 ft 440 kts 300°
2026-05-05 00:34 47.99082 -119.05637 29782 ft 442 kts 300°
2026-05-05 00:34 48.01496 -119.14010 29786 ft 441 kts 300°
2026-05-05 00:35 48.03913 -119.22397 29786 ft 440 kts 300°
2026-05-05 00:35 48.06329 -119.30825 29789 ft 441 kts 300°
2026-05-05 00:36 48.08735 -119.39242 29782 ft 442 kts 300°
2026-05-05 00:36 48.11148 -119.47718 29783 ft 441 kts 300°
2026-05-05 00:37 48.13547 -119.56167 29784 ft 442 kts 300°
2026-05-05 00:37 48.15947 -119.64658 29787 ft 442 kts 299°
2026-05-05 00:38 48.18334 -119.73130 29782 ft 442 kts 299°
2026-05-05 00:38 48.20719 -119.81620 29790 ft 441 kts 299°
2026-05-05 00:39 48.23098 -119.90120 29784 ft 443 kts 299°
2026-05-05 00:39 48.25461 -119.98611 29782 ft 439 kts 299°
2026-05-05 00:40 48.27827 -120.07107 29795 ft 441 kts 299°
2026-05-05 00:40 48.30186 -120.15647 29810 ft 443 kts 299°
2026-05-05 00:41 48.32544 -120.24197 29812 ft 444 kts 299°
2026-05-05 00:41 48.34895 -120.32761 29823 ft 443 kts 298°
2026-05-05 00:42 48.37242 -120.41329 29832 ft 441 kts 298°
2026-05-05 00:42 48.39555 -120.49820 29840 ft 440 kts 298°
2026-05-05 00:43 48.41872 -120.58347 29834 ft 439 kts 298°
2026-05-05 00:43 48.44185 -120.66885 29828 ft 440 kts 298°
2026-05-05 00:44 48.46486 -120.75421 29832 ft 442 kts 298°
2026-05-05 00:44 48.48786 -120.83983 29834 ft 442 kts 298°
2026-05-05 00:45 48.51093 -120.92578 29833 ft 442 kts 298°
2026-05-05 00:45 48.53385 -121.01207 29851 ft 445 kts 297°
2026-05-05 00:46 48.55700 -121.09852 29858 ft 442 kts 297°
2026-05-05 00:46 48.57982 -121.18537 29842 ft 445 kts 297°
2026-05-05 00:47 48.60268 -121.27168 29844 ft 446 kts 297°
2026-05-05 00:47 48.62552 -121.35863 29815 ft 443 kts 297°
2026-05-05 00:48 48.64810 -121.44491 29855 ft 447 kts 297°
2026-05-05 00:48 48.67089 -121.53197 29858 ft 442 kts 297°
2026-05-05 00:49 48.69341 -121.61891 29872 ft 444 kts 297°
2026-05-05 00:49 48.71606 -121.70601 29862 ft 444 kts 297°
2026-05-05 00:50 48.73844 -121.79308 29867 ft 443 kts 297°
2026-05-05 00:50 48.76096 -121.88046 29876 ft 446 kts 296°
2026-05-05 00:51 48.78327 -121.96784 29878 ft 443 kts 296°
2026-05-05 00:51 48.80565 -122.05526 29859 ft 445 kts 297°
2026-05-05 00:52 48.82778 -122.14270 29856 ft 445 kts 296°
2026-05-05 00:52 48.85003 -122.23033 29851 ft 443 kts 296°
2026-05-05 00:53 48.87209 -122.31801 29871 ft 447 kts 296°
2026-05-05 00:53 48.89431 -122.40648 29871 ft 447 kts 296°
2026-05-05 00:54 48.91634 -122.49457 29865 ft 447 kts 296°
2026-05-05 00:54 48.93838 -122.58305 29869 ft 446 kts 296°
2026-05-05 00:55 48.96029 -122.67134 29876 ft 447 kts 296°
2026-05-05 00:55 48.98224 -122.76010 29879 ft 448 kts 295°
2026-05-05 00:56 49.00403 -122.84869 29869 ft 447 kts 296°
2026-05-05 00:56 49.02587 -122.93766 29873 ft 448 kts 295°
2026-05-05 00:57 49.04757 -123.02650 29641 ft 451 kts 295°
2026-05-05 00:57 49.05852 -123.07140 29105 ft 449 kts 295°
2026-05-05 00:57 49.06922 -123.11564 28566 ft 442 kts 295°
2026-05-05 00:57 49.08208 -123.15745 28007 ft 430 kts 306°
2026-05-05 00:58 49.09932 -123.19433 27496 ft 430 kts 311°
2026-05-05 00:58 49.11777 -123.23151 27011 ft 444 kts 311°
2026-05-05 00:58 49.13623 -123.26911 26521 ft 439 kts 310°
2026-05-05 00:58 49.15424 -123.30630 26031 ft 433 kts 310°
2026-05-05 00:59 49.17219 -123.34322 25549 ft 432 kts 311°
2026-05-05 00:59 49.19013 -123.37992 25074 ft 430 kts 311°
2026-05-05 00:59 49.20791 -123.41649 24593 ft 427 kts 310°
2026-05-05 00:59 49.22550 -123.45281 24145 ft 423 kts 310°
2026-05-05 01:00 49.24286 -123.48864 23679 ft 423 kts 310°
2026-05-05 01:00 49.26050 -123.52495 23191 ft 423 kts 310°
2026-05-05 01:00 49.27781 -123.56087 22650 ft 415 kts 310°
2026-05-05 01:00 49.29490 -123.59632 22126 ft 413 kts 310°
2026-05-05 01:01 49.31196 -123.63162 21613 ft 412 kts 310°
2026-05-05 01:01 49.32891 -123.66682 21108 ft 408 kts 310°
2026-05-05 01:01 49.34564 -123.70167 20601 ft 404 kts 310°
2026-05-05 01:01 49.36207 -123.73586 20117 ft 402 kts 310°
2026-05-05 01:02 49.37861 -123.77033 19655 ft 400 kts 310°
2026-05-05 01:02 49.39502 -123.80461 19219 ft 396 kts 310°
2026-05-05 01:02 49.41130 -123.83865 18799 ft 395 kts 310°
2026-05-05 01:02 49.42753 -123.87259 18377 ft 394 kts 310°
2026-05-05 01:03 49.44365 -123.90641 17953 ft 391 kts 310°
2026-05-05 01:03 49.45968 -123.94004 17479 ft 388 kts 310°
2026-05-05 01:03 49.47557 -123.97342 17013 ft 386 kts 309°
2026-05-05 01:03 49.49141 -124.00674 16559 ft 385 kts 309°
2026-05-05 01:04 49.50585 -124.03742 16043 ft 325 kts 309°
2026-05-05 01:04 49.53370 -124.09579 15846 ft 336 kts 309°
2026-05-05 01:04 49.54749 -124.12500 15850 ft 339 kts 309°
2026-05-05 01:05 49.56139 -124.15446 15844 ft 341 kts 309°
2026-05-05 01:05 49.57531 -124.18396 15711 ft 343 kts 309°
2026-05-05 01:05 49.58934 -124.21368 15310 ft 341 kts 309°
2026-05-05 01:05 49.60310 -124.24292 14904 ft 334 kts 309°
2026-05-05 01:06 49.61212 -124.26211 14646 ft 334 kts 309°
2026-05-05 01:06 49.63037 -124.30085 14125 ft 333 kts 309°
2026-05-05 01:06 49.63887 -124.32055 13826 ft 334 kts 301°
2026-05-05 01:06 49.64892 -124.35295 13320 ft 333 kts 297°
2026-05-05 01:07 49.65806 -124.38526 12781 ft 324 kts 297°
2026-05-05 01:07 49.66714 -124.41643 12260 ft 314 kts 297°
2026-05-05 01:07 49.67623 -124.44666 11720 ft 306 kts 297°
2026-05-05 01:07 49.68487 -124.47574 11201 ft 289 kts 297°
2026-05-05 01:08 49.69311 -124.50374 10686 ft 288 kts 297°
2026-05-05 01:08 49.70144 -124.53200 10211 ft 289 kts 296°
2026-05-05 01:08 49.70968 -124.55995 9715 ft 283 kts 296°
2026-05-05 01:08 49.71772 -124.58726 9184 ft 273 kts 296°
2026-05-05 01:09 49.72534 -124.61329 8887 ft 259 kts 296°
2026-05-05 01:09 49.73278 -124.63866 8874 ft 263 kts 296°
2026-05-05 01:09 49.74044 -124.66470 8875 ft 268 kts 296°
2026-05-05 01:09 49.74809 -124.69084 8874 ft 265 kts 296°
2026-05-05 01:10 49.75569 -124.71684 8876 ft 267 kts 296°
2026-05-05 01:10 49.76337 -124.74311 8874 ft 268 kts 296°
2026-05-05 01:10 49.77102 -124.76933 8874 ft 266 kts 296°
2026-05-05 01:10 49.77863 -124.79542 8873 ft 267 kts 296°
2026-05-05 01:11 49.78630 -124.82175 8726 ft 273 kts 296°
2026-05-05 01:11 49.79409 -124.84851 8343 ft 271 kts 296°
2026-05-05 01:11 49.80173 -124.87485 7926 ft 266 kts 295°
2026-05-05 01:11 49.80925 -124.90076 7496 ft 262 kts 295°
2026-05-05 01:12 49.81664 -124.92621 7076 ft 246 kts 295°
2026-05-05 01:12 49.82348 -124.94989 6618 ft 246 kts 295°
2026-05-05 01:12 49.82975 -124.97465 6138 ft 247 kts 283°
2026-05-05 01:12 49.82803 -125.00063 5611 ft 246 kts 245°
2026-05-05 01:13 49.81739 -125.01864 4900 ft 213 kts 207°
2026-05-05 01:13 49.80387 -125.02144 3863 ft 192 kts 165°
2026-05-05 01:13 49.79200 -125.01295 2947 ft 187 kts 138°
2026-05-05 01:13 49.78341 -124.99870 2026 ft 178 kts 130°
2026-05-05 01:14 49.77492 -124.98447 1357 ft 186 kts 135°
2026-05-05 01:14 49.76494 -124.96895 986 ft 209 kts 135°
2026-05-05 01:14 49.75567 -124.95417 874 ft 174 kts 134°
2026-05-05 01:14 49.74769 -124.94113 726 ft 161 kts 134°
2026-05-05 01:15 49.74028 -124.92953 360 ft 154 kts 131°
2026-05-05 01:15 49.73284 -124.91453 357 ft 164 kts 129°
2026-05-05 01:15 49.72514 -124.90650 351 ft 124 kts 149°
2026-05-05 01:15 49.71814 -124.89736 157 ft 135 kts 135°
2026-05-05 01:16 49.71200 -124.88785 94 ft 114 kts 133°
2026-05-05 01:16 49.70710 -124.88025 84 ft 78 kts 136°
2026-05-05 01:16 49.70427 -124.87611 85 ft 43 kts 136°
2026-05-05 01:16 49.70245 -124.87340 65 ft 29 kts 136°
2026-05-05 01:17 49.70160 -124.87245 65 ft 10 kts 177°
2026-05-05 01:17 49.70114 -124.87277 63 ft 4 kts 231°
2026-05-05 01:17 49.70104 -124.87313 65 ft 6 kts 269°
2026-05-05 01:17 49.70150 -124.87406 68 ft 19 kts 315°
2026-05-05 01:18 49.70250 -124.87558 72 ft 20 kts 315°
2026-05-05 01:18 49.70342 -124.87699 66 ft 18 kts 315°
2026-05-05 01:18 49.70429 -124.87830 72 ft 17 kts 315°
2026-05-05 01:18 49.70480 -124.87966 69 ft 14 kts 290°
2026-05-05 01:19 49.70522 -124.88067 67 ft 9 kts 314°
2026-05-05 01:19 49.70568 -124.88138 67 ft 9 kts 314°
2026-05-05 01:19 49.70612 -124.88207 82 ft 9 kts 314°
2026-05-05 01:19 49.70655 -124.88274 84 ft 9 kts 315°
2026-05-05 01:20 49.70697 -124.88340 84 ft 9 kts 315°
2026-05-05 01:20 49.70739 -124.88405 85 ft 8 kts 315°
2026-05-05 01:20 49.70779 -124.88468 86 ft 8 kts 315°
2026-05-05 01:20 49.70817 -124.88523 85 ft 6 kts 323°
2026-05-05 01:21 49.70857 -124.88576 84 ft 9 kts 316°
2026-05-05 01:21 49.70910 -124.88655 86 ft 12 kts 316°
2026-05-05 01:21 49.70978 -124.88755 83 ft 15 kts 316°
2026-05-05 01:21 49.71059 -124.88879 88 ft 17 kts 312°
2026-05-05 01:22 49.71149 -124.89019 88 ft 20 kts 315°
2026-05-05 01:22 49.71251 -124.89174 89 ft 22 kts 315°
2026-05-05 01:22 49.71361 -124.89344 87 ft 23 kts 315°
2026-05-05 01:22 49.71481 -124.89525 89 ft 25 kts 316°
2026-05-05 01:23 49.71606 -124.89712 89 ft 26 kts 316°
2026-05-05 01:23 49.71728 -124.89902 92 ft 24 kts 315°
2026-05-05 01:23 49.71798 -124.90015 91 ft 8 kts 303°
2026-05-05 01:23 49.71799 -124.90051 91 ft 2 kts 250°
2026-05-05 01:24 49.71788 -124.90063 93 ft 2 kts 194°
2026-05-05 01:24 49.71750 -124.90063 93 ft 11 kts 177°
2026-05-05 01:24 49.71657 -124.90056 92 ft 13 kts 182°
2026-05-05 01:24 49.71613 -124.90100 88 ft 3 kts 275°
2026-05-05 01:25 49.71616 -124.90155 91 ft 0 kts 275°